Location: K�ln
(50.9455°N, 6.9544°E)
Time: 07:23:56
(UTC+02:00)

ISS - Visible Passes

Search period start: 29 March 2017 00:00
Search period end: 08 April 2017 00:00
Orbit: 399 x 409 km, 51.6° (Epoch: 29 March)

Date Brightness Start Highest point End Pass type
(mag) Time Alt. Az. Time Alt. Az. Time Alt. Az.
29 Mar -3.4 21:41:58 10° SW 21:45:05 41° SSE 21:45:05 41° SSE visible
30 Mar -2.7 20:49:58 10° SSW 20:52:49 28° SSE 20:55:20 12° E visible
30 Mar -2.8 22:25:46 10° WSW 22:28:00 41° WSW 22:28:00 41° WSW visible
31 Mar -3.9 21:33:25 10° WSW 21:36:40 66° SSE 21:38:02 31° E visible
31 Mar -1.1 23:09:53 10° W 23:10:43 17° W 23:10:43 17° W visible
01 Apr -3.5 20:41:10 10° SW 20:44:19 47° SSE 20:47:29 10° E visible
01 Apr -3.8 22:17:26 10° W 22:20:37 77° NW 22:20:37 77° NW visible
02 Apr -3.9 21:25:01 10° WSW 21:28:17 89° N 21:30:24 20° E visible
02 Apr -1.7 23:01:32 10° W 23:03:03 25° WNW 23:03:03 25° WNW visible
03 Apr -3.8 22:09:05 10° W 22:12:22 77° N 22:12:46 64° ENE visible
04 Apr -3.7 21:16:36 10° W 21:19:53 77° N 21:22:25 16° E visible
04 Apr -2.2 22:53:07 10° WNW 22:55:04 32° W 22:55:04 32° W visible
05 Apr -3.9 22:00:40 10° W 22:03:57 89° N 22:04:40 51° E visible
05 Apr -0.6 23:37:14 10° W 23:37:18 10° W 23:37:18 10° W visible
06 Apr -3.8 21:08:10 10° W 21:11:27 79° N 21:14:15 13° E visible
06 Apr -2.5 22:44:41 10° W 22:46:54 35° WSW 22:46:54 35° WSW visible
07 Apr -3.8 21:52:10 10° WNW 21:55:26 67° SSW 21:56:28 39° SE visible
